sat.trackr.live / text

‹ back to catalog

SPAINSAT NG I

NORAD 62852 · 2025-021A

PAYLOAD ACTIVE UNKNOWN

§ Identity

Operator
Country
SPN
Launch date
2025-01-30
Launch site
AFETR
Launch vehicle
Mass (kg)
RCS (m²)

Purposes: comms

External: N2YO · Heavens-Above · Gunter

§ Orbital elements

Epoch: 2026-05-25T03:52:53.967936Z

Period
1,436.08 min
Inclination
0.0111°
Eccentricity
0.0000224
Mean motion
1.00272647 rev/d
Perigee alt
35,785.4 km
Apogee alt
35,787.3 km
Semi-major
42,164.5 km
B*
0.0000e+0
RAAN
302.3766°
Arg perigee
39.1263°
Mean anomaly
348.4657°
Rev number
375

§ Raw data

SPAINSAT NG I1 62852U 25021A   26145.16173574  .00000149  00000+0  00000+0 0  99972 62852   0.0111 302.3766 0000224  39.1263 348.4657  1.00272647  3758

JSON: /api/v1/satellites/62852 · /tle

For live sub-satellite position, see the globe view (requires WebGL).

§ Visibility from observer

Set your observer location to see the next 7 days of passes ≥ 10°. The values pass through the URL so the page stays shareable.

No JS? Fill the form by hand. The geolocation button needs JavaScript.